Tracking 19293 objects as of 21-Nov-2018
HD Live streaming from Space Station
objects crossing your sky now

HGS 4 (GALAXY 4)

Track HGS 4 (GALAXY 4) now!
HGS 4 (GALAXY 4) is classified as:


NORAD ID: 22694
Int'l Code: 1993-039A
Perigee: 35,728.2 km
Apogee: 35,856.4 km
Inclination: 14.4 °
Period: 1,436.0 minutes
Semi major axis: 42163 km
RCS: 28.88 m2 (large)
Launch date: June 25, 1993
Source: United States (US)
Launch site: FRENCH GUIANA (FRGUI)
aabbcc
Your satellite tracking list
Your tracking list is empty




NASA's NSSDC Master Catalog

Two Line Element Set (TLE):
1 22694U 93039A   18323.69988795 -.00000078 +00000-0 +00000-0 0  9991
2 22694 014.4204 017.8710 0015199 247.2037 118.1169 01.00276881091262
Source of the keplerian elements: AFSPC